STARLINK-5973, 56916

Orbit data source: Space-Track

STARLINK-5973, 56916 is a payload satellite owned by SpaceX/Seattle (US) in LEO that was launched on Mon, 12 Jun 2023 UTC via an FALCON 9 launch vehicle from the Air Force Eastern Test Range (AFETR). Payload-class satellites include a variety of spacecraft equipped with specific instruments for various scientific and technological missions. These include communications satellites like Starlink; space stations such as the ISS; scientific satellites like the Hubble; Earth observation satellites from companies like Planet Labs, Umbra, and HawkEye 360; GPS; miniature CubeSats for education and research; and military/defense satellites.

Loading next visibility...
Identifier
56916, 2023-083AS
Orbit
LEO
Country
Flag of USUS
Related business
Manufacturer
SpaceX/Seattle
Mission
Operational Commercial Communications
Bus & Motor
STARLINK, Unknown motor
Mass
305 kg wet, ~290 kg dry
Launch date (UTC)
2023-06-12 (3 years ago)
Launch vehicle
FALCON 9
Launch site
Air Force Eastern Test Range (AFETR)
Object type
Payload
Rocket body
Debris
Shape & HBR
Box + 1 Pan, 10.1 m
Radar Cross Section
11.087 m², Large (>1 m²)

Expand to show TLE details & history
Last TLE update: 2 days ago

TLE from 2 days ago
0 STARLINK-5973
1 56916U 23083AS  26171.37798094 -.00000112  00000-0  54619-5 0  9992
2 56916  43.0018 210.6923 0002329 282.2493  77.8098 15.27575907167476
Epoch: 2026-06-20T09:04Z
TLE epoch observation values (Epoch: 2026-06-20T09:04:17.553Z)
Latitude
0.00001°
Longitude
166.0257°
Altitude
482.5 km
Speed
7.626 km/s
True Right ascension
14h 02m 46s
True Declination
0° 00' 00"
Sunlit
Object was in full shadow at epoch
Visualization orbit readout
Latitude
Unknown
Longitude
Unknown
Altitude
Unknown
Speed
Unknown
Apparent Right ascension
Unknown
Apparent Declination
Unknown
Sunlit
N/A
Visualization observer readout
Local Sidereal Time
21:33:21
Azimuth
Unknown
Elevation
Unknown
Doppler factor
Unknown
Orbital elements
Apogee altitude
486.605 km
Perigee altitude
483.408 km
Semi-major axis
6,863.143 km
Eccentricity
0.00023
Inclination
43.0018°
RAAN
210.6923°
Arg. of periapsis
282.2493°
True anomaly
77.83589°
Mean anomaly
77.8098°
Eccentric anomaly
77.82284°
Mean motion
3.81732 °/min
Orbital period
94.31 mins
BSTAR
0.0000054619
Loading maneuver chart data...
Computing Atmospheric mass density...
Loading historical data...
Loading historical data...
Loading historical data...
Loading historical data...
Loading historical data...
Loading historical data...
Loading historical data...

Documentation

Showing up to 5 results
|